Temp
-12 -12 -11 -11 -11 -11 -11 -10 -10 -10 -10 -10 -10 -10 -10 -10 -10 -10 -10 -10 -10 -10 -10 -10 -9 -9 -9 -9 -9 -8 -8 -8 -8 -8 -8 -8 -8 -8 -8 -8 -8 -8 -8 -8 -9
-12 -11 -11 -11 -11 -10 -10 -10 -10 -10 -10 -10 -10 -10 -10 -10 -10 -10 -10 -10 -10 -10 -10 -10 -10 -10 -9 -9 -9 -9 -9 -9 -9 -9 -9 -9 -8 -8 -7 -7 -8 -8 -7 -8 -8
-11 -11 -11 -11 -11 -11 -10 -10 -10 -10 -10 -10 -10 -10 -10 -10 -10 -10 -10 -10 -10 -10 -10 -10 -10 -10 -10 -10 -9 -9 -10 -9 -10 -9 -9 -9 -9 -9 -8 -7 -8 -8 -8 -7 -8
-11 -11 -11 -11 -11 -11 -11 -10 -10 -10 -10 -10 -10 -10 -10 -10 -10 -10 -10 -10 -10 -10 -10 -10 -10 -10 -10 -10 -10 -10 -10 -10 -10 -10 -9 -10 -10 -9 -9 -9 -10 -9 -9 -9 -8
-11 -11 -11 -11 -11 -11 -11 -10 -10 -10 -10 -10 -10 -10 -10 -10 -10 -9 -9 -9 -9 -9 -9 -9 -9 -10 -10 -10 -10 -9 -10 -10 -10 -10 -9 -9 -10 -10 -9 -9 -10 -10 -10 -9 -9
-11 -11 -11 -11 -11 -11 -11 -11 -11 -11 -10 -10 -10 -10 -10 -10 -10 -10 -10 -10 -10 -10 -10 -10 -10 -10 -10 -10 -9 -9 -9 -9 -10 -10 -9 -9 -9 -9 -9 -9 -10 -10 -10 -10 -10
-11 -11 -11 -11 -11 -11 -11 -11 -11 -11 -11 -11 -11 -11 -11 -11 -10 -10 -10 -10 -10 -10 -10 -10 -10 -10 -10 -10 -10 -10 -10 -10 -10 -10 -10 -10 -9 -10 -10 -9 -9 -9 -10 -10 -10
-11 -11 -11 -11 -11 -11 -11 -11 -11 -11 -11 -11 -11 -11 -11 -11 -10 -11 -11 -11 -11 -11 -11 -11 -11 -11 -11 -11 -11 -11 -10 -10 -10 -10 -10 -9 -9 -10 -10 -10 -10 -10 -10 -10 -10
-11 -11 -11 -11 -11 -11 -11 -11 -11 -11 -10 -10 -10 -11 -11 -11 -10 -10 -10 -10 -10 -11 -10 -11 -11 -11 -11 -11 -11 -11 -11 -10 -11 -11 -11 -10 -10 -11 -11 -10 -11 -11 -11 -11 -11
-11 -11 -11 -11 -11 -11 -11 -11 -11 -11 -11 -11 -10 -10 -10 -11 -11 -10 -10 -10 -10 -10 -10 -11 -11 -11 -11 -11 -11 -10 -11 -11 -11 -11 -11 -11 -11 -11 -11 -11 -11 -11 -12 -12 -12
-12 -11 -11 -11 -11 -11 -11 -11 -11 -11 -11 -11 -11 -11 -11 -11 -11 -11 -11 -11 -11 -11 -11 -11 -11 -12 -11 -11 -11 -11 -11 -11 -11 -11 -11 -11 -10 -11 -11 -11 -12 -12 -12 -12 -12
-12 -11 -12 -11 -11 -11 -11 -11 -11 -11 -11 -11 -11 -11 -11 -11 -11 -11 -11 -11 -11 -11 -11 -11 -11 -11 -11 -11 -11 -11 -11 -11 -11 -11 -11 -11 -10 -11 -11 -11 -11 -11 -12 -12 -12
-11 -11 -11 -12 -12 -11 -11 -11 -11 -11 -11 -11 -11 -11 -11 -11 -11 -11 -12 -12 -12 -11 -12 -11 -12 -11 -11 -12 -12 -12 -12 -12 -11 -12 -12 -11 -11 -12 -12 -12 -12 -12 -12 -12 -12
-11 -12 -12 -11 -11 -11 -12 -11 -11 -11 -11 -11 -12 -11 -11 -11 -12 -11 -12 -12 -12 -12 -12 -12 -12 -12 -12 -12 -12 -12 -13 -12 -12 -12 -12 -12 -12 -12 -12 -12 -13 -13 -13 -12 -12
-11 -11 -11 -11 -11 -11 -11 -11 -12 -12 -12 -12 -11 -12 -12 -13 -13 -12 -12 -12 -12 -12 -12 -13 -13 -13 -13 -13 -13 -13 -13 -13 -13 -13 -12 -12 -12 -12 -12 -13 -13 -13 -14 -14 -13
-11 -11 -11 -11 -11 -11 -11 -12 -12 -12 -13 -12 -12 -13 -13 -13 -13 -13 -13 -13 -13 -13 -13 -14 -13 -13 -14 -13 -13 -13 -14 -14 -13 -13 -12 -13 -13 -12 -13 -13 -13 -13 -13 -13 -14
-11 -11 -11 -11 -11 -11 -11 -12 -13 -13 -13 -13 -13 -13 -13 -13 -13 -14 -13 -14 -14 -14 -14 -14 -14 -14 -14 -14 -15 -14 -14 -14 -13 -13 -13 -13 -12 -12 -13 -14 -14 -14 -14 -13 -13
-12 -12 -11 -11 -11 -11 -11 -12 -13 -13 -13 -14 -14 -13 -13 -14 -14 -14 -14 -14 -14 -14 -14 -14 -14 -15 -15 -15 -15 -15 -15 -15 -14 -14 -13 -13 -11 -13 -13 -14 -14 -14 -13 -14 -15
-12 -12 -12 -12 -12 -12 -12 -12 -12 -13 -14 -14 -14 -14 -14 -14 -15 -15 -15 -15 -15 -15 -15 -14 -14 -14 -15 -15 -15 -14 -14 -15 -14 -14 -13 -12 -12 -12 -13 -14 -14 -14 -14 -14 -14
-13 -13 -13 -13 -12 -12 -12 -12 -13 -13 -14 -14 -15 -14 -15 -14 -15 -15 -16 -15 -15 -15 -15 -15 -14 -14 -14 -14 -14 -15 -15 -14 -15 -13 -13 -12 -12 -12 -13 -14 -14 -15 -15 -14 -14
-13 -13 -13 -13 -13 -13 -13 -13 -13 -13 -14 -14 -14 -15 -15 -14 -15 -16 -15 -16 -16 -16 -15 -15 -15 -15 -14 -15 -15 -15 -14 -14 -15 -14 -14 -13 -13 -13 -14 -15 -16 -15 -15 -15 -15
-13 -14 -13 -13 -14 -14 -14 -14 -14 -14 -14 -14 -15 -15 -15 -15 -15 -15 -16 -16 -16 -16 -16 -16 -16 -15 -15 -15 -15 -15 -15 -16 -16 -15 -15 -15 -13 -15 -16 -17 -16 -16 -16 -17 -17
-14 -14 -14 -14 -14 -14 -14 -14 -14 -14 -14 -15 -15 -15 -15 -16 -16 -16 -16 -16 -16 -17 -17 -17 -16 -16 -15 -15 -16 -15 -15 -16 -16 -16 -15 -15 -14 -16 -17 -17 -17 -17 -18 -18 -18
-15 -15 -15 -15 -15 -15 -15 -15 -15 -14 -15 -15 -15 -15 -15 -15 -16 -16 -16 -16 -16 -16 -17 -17 -16 -16 -16 -16 -16 -15 -15 -16 -16 -16 -16 -16 -16 -17 -18 -17 -18 -19 -19 -19 -19
-16 -16 -16 -16 -15 -15 -16 -16 -16 -15 -15 -15 -16 -16 -16 -16 -16 -16 -16 -16 -17 -17 -17 -17 -16 -16 -16 -16 -16 -15 -16 -16 -16 -16 -16 -17 -16 -18 -18 -19 -19 -19 -20 -20 -20
-16 -17 -17 -17 -17 -16 -16 -16 -16 -16 -16 -16 -16 -16 -16 -16 -16 -16 -16 -17 -17 -17 -17 -17 -17 -17 -16 -17 -16 -15 -17 -17 -17 -17 -17 -17 -17 -18 -19 -19 -19 -20 -19 -19 -19
-17 -17 -17 -17 -17 -17 -17 -17 -17 -17 -17 -17 -17 -17 -17 -17 -17 -17 -17 -17 -17 -17 -17 -17 -17 -17 -16 -17 -16 -16 -17 -17 -17 -17 -18 -18 -19 -19 -19 -19 -19 -19 -19 -19 -20
Height
5758 5759 5760 5760 5761 5763 5765 5767 5769 5771 5774 5778 5780 5784 5786 5789 5791 5793 5796 5798 5800 5801 5804 5807 5809 5811 5813 5818 5820 5821 5824 5829 5833 5835 5840 5840 5840 5841 5840 5844 5845 5850 5853 5861 5861
5762 5761 5761 5761 5762 5762 5764 5766 5768 5771 5773 5775 5778 5780 5783 5785 5787 5790 5792 5794 5796 5798 5800 5802 5804 5807 5809 5812 5814 5816 5820 5822 5824 5825 5827 5831 5832 5835 5836 5836 5839 5839 5845 5850 5853
5764 5763 5763 5763 5763 5763 5763 5765 5767 5769 5771 5772 5774 5776 5779 5782 5784 5787 5789 5791 5793 5795 5797 5799 5800 5802 5804 5806 5809 5810 5813 5814 5817 5820 5821 5824 5826 5826 5829 5833 5833 5833 5833 5838 5841
5765 5764 5764 5764 5763 5764 5765 5765 5765 5766 5768 5769 5772 5774 5776 5778 5781 5781 5783 5785 5787 5789 5791 5793 5795 5796 5798 5800 5802 5805 5807 5808 5811 5813 5815 5818 5820 5821 5822 5825 5825 5826 5825 5829 5832
5767 5765 5764 5764 5764 5764 5764 5765 5766 5766 5767 5768 5769 5771 5772 5774 5776 5777 5779 5780 5782 5783 5785 5786 5788 5790 5792 5793 5795 5797 5799 5802 5803 5806 5808 5809 5812 5813 5814 5814 5815 5818 5820 5819 5823
5767 5766 5764 5764 5764 5763 5763 5763 5763 5764 5765 5766 5767 5769 5770 5772 5773 5774 5776 5777 5778 5779 5780 5782 5783 5785 5786 5788 5790 5791 5793 5795 5797 5798 5801 5802 5804 5806 5807 5807 5809 5810 5812 5812 5810
5765 5765 5765 5763 5762 5762 5762 5762 5762 5762 5762 5763 5763 5765 5766 5768 5768 5770 5772 5773 5775 5776 5777 5778 5779 5780 5781 5782 5783 5784 5787 5788 5789 5790 5794 5795 5798 5799 5799 5799 5800 5801 5802 5804 5806
5764 5763 5762 5762 5761 5760 5760 5760 5760 5760 5760 5760 5760 5761 5761 5762 5763 5765 5766 5768 5769 5769 5772 5773 5775 5776 5776 5777 5778 5779 5780 5781 5781 5783 5784 5786 5791 5788 5788 5790 5791 5793 5795 5795 5796
5760 5760 5759 5759 5758 5758 5757 5757 5757 5757 5757 5757 5758 5758 5758 5759 5760 5761 5761 5763 5764 5765 5766 5767 5768 5769 5770 5771 5771 5771 5772 5774 5776 5775 5776 5777 5780 5782 5780 5781 5783 5784 5786 5788 5789
5757 5756 5755 5754 5754 5754 5753 5753 5753 5753 5754 5754 5754 5756 5756 5756 5756 5756 5758 5759 5759 5760 5761 5762 5763 5764 5763 5763 5764 5765 5766 5767 5769 5768 5765 5767 5769 5769 5774 5773 5773 5775 5776 5779 5781
5756 5754 5752 5750 5749 5749 5749 5749 5750 5750 5748 5749 5750 5750 5750 5751 5751 5752 5753 5753 5754 5755 5755 5756 5758 5758 5756 5758 5759 5759 5760 5761 5761 5760 5757 5760 5760 5760 5761 5763 5767 5767 5767 5768 5770
5752 5751 5749 5747 5745 5744 5743 5743 5742 5744 5742 5743 5743 5743 5745 5744 5745 5746 5747 5749 5748 5747 5748 5751 5751 5749 5751 5752 5752 5752 5753 5753 5755 5751 5747 5753 5751 5755 5754 5754 5755 5755 5757 5758 5759
5746 5744 5744 5743 5741 5739 5738 5737 5736 5735 5735 5734 5735 5736 5738 5738 5738 5739 5739 5740 5741 5741 5741 5743 5742 5743 5743 5744 5745 5743 5745 5744 5745 5744 5741 5742 5742 5748 5748 5744 5744 5745 5746 5746 5744
5741 5740 5738 5738 5737 5734 5732 5730 5729 5729 5729 5729 5727 5727 5728 5729 5730 5731 5731 5732 5733 5733 5735 5737 5733 5735 5735 5738 5734 5735 5735 5734 5735 5734 5735 5733 5726 5737 5737 5734 5734 5735 5734 5731 5731
5736 5735 5732 5730 5729 5726 5724 5724 5722 5723 5723 5721 5720 5719 5719 5721 5721 5722 5723 5724 5724 5724 5728 5728 5727 5726 5728 5727 5725 5728 5725 5725 5723 5722 5719 5724 5720 5718 5725 5728 5727 5724 5721 5719 5717
5731 5729 5727 5724 5721 5721 5717 5717 5716 5717 5714 5714 5715 5713 5712 5711 5712 5712 5715 5716 5716 5717 5720 5721 5718 5718 5719 5717 5717 5717 5716 5713 5711 5711 5706 5713 5709 5707 5712 5716 5712 5712 5709 5709 5706
5725 5723 5722 5719 5716 5714 5712 5711 5711 5709 5708 5709 5708 5707 5706 5704 5704 5705 5705 5706 5708 5708 5711 5712 5712 5712 5711 5709 5710 5708 5707 5703 5701 5700 5699 5699 5695 5696 5699 5699 5699 5698 5696 5696 5695
5722 5719 5716 5714 5711 5708 5706 5706 5704 5701 5702 5702 5701 5699 5701 5699 5697 5696 5697 5698 5699 5699 5700 5702 5706 5705 5705 5701 5701 5702 5702 5698 5690 5688 5687 5687 5682 5685 5687 5686 5684 5682 5681 5679 5678
5718 5716 5713 5711 5708 5706 5704 5701 5698 5698 5697 5696 5694 5692 5692 5691 5689 5689 5688 5689 5689 5692 5693 5692 5694 5696 5695 5695 5695 5694 5693 5691 5684 5681 5675 5676 5673 5672 5675 5674 5673 5668 5664 5662 5662
5713 5711 5710 5707 5705 5703 5701 5698 5694 5692 5689 5688 5687 5685 5683 5682 5682 5682 5681 5683 5682 5684 5683 5683 5680 5685 5685 5685 5685 5684 5682 5680 5677 5672 5665 5665 5661 5659 5660 5661 5657 5653 5649 5649 5645
5708 5706 5704 5702 5700 5698 5696 5693 5690 5688 5685 5683 5678 5677 5675 5674 5672 5670 5673 5674 5674 5676 5675 5674 5672 5673 5674 5677 5674 5673 5671 5670 5667 5663 5658 5654 5654 5652 5651 5648 5643 5639 5638 5634 5629
5702 5700 5699 5697 5695 5692 5690 5688 5685 5681 5680 5677 5674 5671 5668 5665 5663 5662 5663 5663 5664 5665 5663 5663 5658 5659 5661 5665 5664 5662 5661 5659 5654 5654 5649 5645 5642 5645 5643 5636 5629 5627 5623 5619 5617
5694 5693 5691 5690 5688 5685 5683 5681 5679 5677 5674 5671 5667 5665 5662 5659 5656 5655 5654 5655 5654 5654 5653 5652 5649 5648 5649 5654 5654 5650 5651 5649 5647 5643 5638 5636 5638 5631 5628 5622 5620 5615 5611 5609 5607
5690 5686 5684 5682 5680 5678 5676 5672 5668 5668 5666 5662 5660 5658 5654 5652 5650 5648 5646 5646 5644 5644 5643 5641 5640 5641 5640 5641 5640 5639 5637 5636 5634 5629 5632 5624 5626 5626 5617 5613 5609 5605 5603 5600 5599
5685 5680 5676 5674 5672 5670 5668 5666 5663 5659 5655 5653 5652 5649 5646 5644 5641 5637 5636 5634 5635 5635 5634 5632 5630 5632 5632 5632 5629 5626 5626 5625 5621 5622 5615 5619 5613 5614 5607 5605 5601 5599 5595 5593 5590
5678 5675 5671 5667 5663 5661 5659 5657 5654 5651 5649 5646 5642 5640 5638 5635 5633 5631 5627 5626 5625 5625 5623 5624 5622 5621 5621 5621 5617 5616 5619 5614 5614 5612 5609 5607 5606 5601 5599 5595 5593 5590 5585 5584 5581
5670 5667 5664 5660 5656 5654 5650 5648 5645 5642 5641 5636 5633 5631 5629 5626 5623 5620 5617 5616 5615 5614 5614 5614 5614 5611 5612 5611 5608 5609 5607 5605 5604 5602 5600 5597 5596 5591 5589 5586 5584 5580 5576 5572 5569
Wind_Speed
13 9 6 4 3 5 11 18 21 22 23 24 24 25 24 24 24 24 24 25 24 25 27 30 30 31 34 38 38 39 42 41 39 39 36 40 45 45 51 50 50 50 51 46 43
14 12 8 4 4 4 4 7 15 19 20 22 23 23 23 23 23 24 23 24 23 23 23 27 30 31 31 32 34 36 37 37 36 38 39 42 45 46 49 52 51 51 53 48 48
10 9 9 9 6 3 6 8 8 11 15 18 20 21 22 22 23 23 24 25 25 25 24 24 27 30 30 31 32 31 31 33 32 33 34 33 38 44 48 48 49 52 53 53 52
12 7 4 4 5 4 3 3 6 10 13 15 17 18 19 20 21 23 23 24 25 25 25 25 25 25 28 30 30 30 31 34 32 33 33 32 34 38 40 44 48 51 54 53 53
11 9 8 4 3 2 3 3 3 5 8 10 13 16 17 18 20 21 21 22 23 24 25 25 25 25 26 27 29 29 30 31 33 34 34 36 33 37 39 40 41 45 49 53 53
9 10 6 5 4 3 4 7 8 9 9 10 11 12 13 14 16 18 18 19 20 21 21 22 22 22 23 24 26 28 28 28 29 30 32 35 37 37 39 43 43 44 44 46 51
9 7 8 6 4 4 4 3 5 8 10 13 15 16 17 18 20 19 19 20 21 21 22 22 23 24 25 27 27 28 29 30 30 31 31 33 34 34 39 44 46 46 47 48 48
13 11 9 9 9 7 7 8 7 7 8 9 10 11 13 15 15 15 16 19 22 24 25 27 28 28 28 30 30 32 34 34 35 34 35 38 35 36 38 40 43 46 49 50 50
12 12 12 12 12 12 12 12 12 13 13 13 12 13 14 14 14 13 14 14 14 15 17 18 22 25 27 30 31 33 35 34 33 35 36 39 41 35 37 39 40 42 44 48 52
15 13 13 11 12 14 14 16 17 18 18 17 17 18 18 18 18 19 18 19 20 19 19 19 18 17 20 23 25 25 24 23 23 27 32 34 35 38 35 37 39 39 41 43 46
17 15 12 13 15 15 15 16 17 18 22 22 22 22 21 21 22 22 22 22 23 23 23 22 21 22 27 25 25 25 25 25 25 27 31 29 31 32 34 37 37 36 37 39 40
19 19 17 16 15 14 15 19 20 18 22 22 25 27 25 25 26 26 26 25 26 26 26 25 25 29 27 27 28 29 29 30 29 33 38 32 36 33 33 34 34 34 36 40 43
21 22 21 21 22 19 18 17 17 20 21 24 25 26 25 28 29 29 29 28 29 29 29 27 30 29 29 29 29 32 31 33 34 35 39 38 40 34 34 38 38 38 37 38 41
23 20 21 22 26 27 24 22 23 20 20 23 28 27 27 27 28 28 31 32 31 32 31 27 32 30 30 28 33 34 33 36 35 37 37 39 47 37 37 40 39 38 40 44 45
21 21 23 24 28 27 28 26 25 22 23 22 22 24 30 28 27 27 29 29 30 32 28 29 30 32 29 30 35 33 35 36 38 39 41 38 43 45 38 37 38 41 44 46 50
23 22 23 24 26 24 27 22 22 22 24 25 25 27 28 30 30 30 29 30 29 30 27 28 33 33 31 33 35 35 35 38 40 42 45 39 41 44 39 32 37 39 44 45 50
22 23 22 22 22 21 21 21 22 21 24 25 24 26 28 31 33 32 33 30 29 32 31 31 31 31 32 35 34 35 37 40 43 44 45 44 47 45 39 38 38 39 42 44 46
21 24 24 23 21 20 19 19 19 23 24 24 25 29 30 32 34 34 35 34 32 33 32 32 31 33 35 38 37 37 37 39 46 48 48 46 49 46 42 41 41 42 43 43 43
21 20 17 17 19 19 20 19 19 19 21 22 25 29 29 28 33 34 36 34 34 33 34 35 36 35 36 35 34 36 35 37 43 46 50 49 50 49 43 43 39 41 45 46 47
21 19 20 21 23 24 22 23 22 19 19 21 22 26 28 29 27 37 38 35 35 35 35 36 39 36 35 35 35 34 35 37 40 46 50 49 50 49 49 43 43 47 49 50 53
21 23 25 25 24 25 25 25 26 23 22 21 21 23 30 29 31 26 26 32 38 40 41 42 44 42 39 34 36 36 37 37 39 44 47 49 49 49 45 44 47 52 51 52 55
24 24 25 25 24 24 25 25 26 28 25 22 23 23 25 30 32 33 31 29 30 28 29 33 41 42 39 35 33 35 36 37 41 43 45 48 48 42 42 46 50 50 48 47 46
26 25 25 26 26 26 27 26 27 27 26 25 26 24 24 26 33 33 32 32 33 33 35 35 42 44 40 34 33 36 36 36 36 40 43 45 42 43 42 45 43 43 41 40 38
30 27 26 25 25 26 27 27 29 28 28 27 29 28 28 28 30 33 37 35 32 29 31 36 38 39 39 37 35 35 35 34 35 40 36 44 38 32 38 40 35 37 37 36 35
31 30 30 29 27 27 27 27 27 28 30 30 30 31 31 31 32 35 35 35 32 30 30 35 39 37 37 34 35 36 34 32 37 34 41 34 40 30 31 30 30 30 30 30 33
33 32 32 32 31 28 28 30 31 32 30 29 32 33 32 32 32 33 35 35 33 30 32 33 36 37 36 33 36 36 29 31 30 33 37 35 32 33 31 31 30 30 32 33 36
34 34 33 33 34 31 31 33 32 33 30 33 33 34 32 35 35 34 34 34 34 31 31 33 34 37 34 31 33 30 26 28 31 32 32 31 29 31 31 31 31 33 37 41 43
Wind_Direction
68 78 99 122 169 211 214 213 212 214 219 224 228 231 234 235 235 235 234 234 236 238 236 235 236 237 238 239 238 239 242 244 245 243 242 239 240 242 252 256 258 258 259 253 255
54 69 81 113 160 184 222 233 229 227 227 228 231 235 238 239 238 239 241 243 244 246 247 239 237 236 235 238 239 241 241 242 243 243 241 239 242 243 246 251 252 253 259 258 253
39 47 70 81 88 150 197 204 220 231 237 239 241 243 244 246 249 250 249 249 248 247 247 249 245 243 241 237 239 241 243 244 246 247 249 246 245 245 248 250 251 253 256 255 254
36 36 22 49 97 95 110 166 193 205 213 224 235 243 247 250 251 252 252 253 254 254 254 254 255 253 251 248 248 245 244 243 246 245 245 244 243 247 246 246 248 251 254 255 255
12 34 37 25 300 223 195 212 203 201 206 215 223 229 235 239 242 247 249 250 252 254 256 255 255 255 254 255 256 255 251 250 249 248 245 244 239 242 247 247 246 250 253 257 256
347 350 12 26 23 351 270 235 225 231 234 229 227 229 230 232 234 238 241 244 245 246 248 250 252 254 254 255 257 258 259 258 255 251 250 249 248 246 243 244 245 249 251 253 260
316 316 318 325 332 329 314 299 265 242 232 236 239 241 244 245 247 247 248 250 251 250 250 251 253 255 255 257 260 262 263 264 263 261 258 254 253 251 246 249 248 245 248 250 251
323 315 298 288 288 282 284 283 267 257 254 242 237 239 243 247 252 251 250 248 248 251 252 253 252 252 255 258 259 260 258 258 260 261 262 261 258 257 254 250 252 252 251 250 251
316 317 309 302 282 272 269 262 265 262 257 254 252 250 247 249 252 251 248 250 249 253 253 251 248 248 249 253 254 256 259 260 263 265 263 260 258 257 261 260 257 256 252 253 255
334 301 304 301 295 286 273 268 263 262 257 253 249 251 250 255 252 253 253 252 252 255 255 252 254 255 255 253 254 261 266 267 267 265 262 263 262 262 259 261 260 258 256 253 253
326 332 335 303 292 294 288 279 270 267 263 258 255 253 253 252 251 253 253 254 251 251 251 253 253 252 249 257 262 263 264 263 265 267 264 264 264 263 262 259 258 260 263 261 256
304 304 307 309 313 312 291 283 281 275 274 265 260 258 255 257 258 256 255 256 256 256 258 256 256 258 263 258 260 263 264 266 260 260 266 266 265 265 268 270 269 265 259 258 256
297 293 295 296 295 297 295 294 294 276 268 275 271 263 257 257 259 262 264 260 258 259 260 262 262 261 264 264 267 267 268 267 267 269 275 274 270 271 271 271 269 271 269 265 261
301 295 293 292 295 294 289 284 289 289 292 283 265 268 265 259 258 260 259 262 265 262 263 262 264 264 266 271 270 269 273 272 273 270 269 271 277 268 267 266 269 270 268 264 262
306 309 303 297 292 294 289 285 288 286 286 284 284 282 267 261 258 256 257 259 259 261 265 262 264 267 271 269 271 277 276 278 279 279 276 272 276 280 265 268 267 264 263 264 265
317 315 307 304 299 297 293 294 287 287 285 283 288 286 279 266 263 255 255 255 257 261 260 266 265 267 270 273 278 280 281 281 280 280 280 288 280 278 282 279 271 269 265 262 262
319 321 321 316 310 308 304 297 292 287 284 292 296 291 287 274 269 266 261 253 254 259 260 255 258 262 269 273 275 279 282 282 280 282 285 285 283 284 294 288 282 276 274 271 265
322 319 319 321 319 323 319 309 297 292 295 299 300 294 296 286 271 267 264 260 256 257 256 255 254 260 262 268 271 271 275 277 282 282 284 285 284 289 292 292 289 288 282 276 270
319 322 330 331 339 340 334 323 313 310 299 297 294 294 301 296 278 270 263 260 257 257 257 260 260 259 261 264 265 271 275 273 272 276 281 284 286 289 293 292 296 289 284 284 285
316 318 318 321 324 325 325 328 328 322 313 301 295 295 292 287 279 265 263 266 264 265 266 269 270 267 270 273 274 276 275 274 276 280 281 284 288 292 294 303 297 291 291 293 290
309 310 310 311 316 317 317 320 320 328 322 314 308 297 294 290 281 277 271 264 264 267 269 270 271 272 272 274 278 277 278 278 278 277 284 284 285 289 301 301 295 293 295 293 291
308 307 306 307 309 311 311 311 313 314 321 327 316 307 298 294 290 285 277 272 278 280 277 272 272 274 276 278 275 275 276 277 276 281 277 279 286 295 299 294 292 296 295 293 293
319 314 307 305 304 304 305 306 306 308 310 316 319 319 306 297 290 284 277 273 271 268 269 270 271 275 276 275 276 276 274 273 273 271 273 281 294 295 297 292 295 294 293 292 290
322 320 315 310 306 303 302 301 303 306 311 312 312 315 314 306 296 290 281 277 273 269 266 269 270 274 276 281 283 278 278 278 274 274 284 281 291 297 289 294 294 292 292 290 290
316 317 318 316 312 309 308 305 303 306 310 309 309 310 310 309 304 297 291 283 279 271 266 266 268 268 272 280 279 280 281 278 275 282 281 294 290 294 289 290 288 290 284 285 282
306 308 311 313 313 312 315 313 307 306 306 305 306 306 306 301 300 298 289 282 272 267 263 262 268 273 276 280 279 279 280 274 278 279 282 286 294 284 288 288 290 288 283 283 283
302 304 305 307 309 309 314 316 310 304 305 305 306 305 306 301 299 298 287 278 268 265 261 264 272 274 277 278 275 279 278 278 277 281 287 289 288 286 285 284 286 287 289 288 291